When you browse on this site, cookies collect data to enhance your experience and personalize the content and advertising you see.
Visit our Privacy Policy to learn more. By continuing to use the site, you agree to this use of cookies and data.
  • Em Portugal
  • Lista de países
  • Para 7 dias
  • Temperatura da água
  • Mapas de satélite
  • Mapa do tempo
  • Widgets de tempo
  • user-avatar
    Iniciar Sessão

    Previsão horária em Connaught

    Hoje, 21 Março, Quinta-feira

    Tempo Temperatura Precipitação Vento Pressão Humidade
    00:00 +10°C° 0 mm 4 m/s 755 mmHg 93%
    01:00 +10°C° 0 mm 4 m/s 755 mmHg 93%
    02:00 +10°C° 0 mm 4 m/s 755 mmHg 93%
    03:00 +10°C° 0 mm 4 m/s 756 mmHg 93%
    04:00 +10°C° 0 mm 4 m/s 756 mmHg 94%
    05:00 +9°C° 0 mm 5 m/s 756 mmHg 94%
    06:00 +9°C° 0 mm 5 m/s 756 mmHg 94%
    07:00 +10°C° 0 mm 4 m/s 756 mmHg 93%
    08:00 +11°C° 0 mm 4 m/s 756 mmHg 92%
    09:00 +10°C° 0 mm 5 m/s 756 mmHg 91%
    10:00 +10°C° 0 mm 5 m/s 756 mmHg 89%
    11:00 +12°C° 0 mm 5 m/s 756 mmHg 88%
    12:00 +12°C° 0.1 mm 5 m/s 756 mmHg 87%
    13:00 +11°C° 0.1 mm 6 m/s 756 mmHg 85%
    14:00 +11°C° 0.1 mm 6 m/s 755 mmHg 84%
    15:00 +12°C° 0 mm 5 m/s 755 mmHg 85%
    16:00 +10°C° 0 mm 5 m/s 754 mmHg 86%
    17:00 +10°C° 0 mm 5 m/s 753 mmHg 87%
    18:00 +10°C° 0 mm 5 m/s 753 mmHg 87%
    19:00 +9°C° 0 mm 5 m/s 753 mmHg 86%
    20:00 +9°C° 0 mm 6 m/s 752 mmHg 86%
    21:00 +9°C° 0 mm 6 m/s 752 mmHg 86%
    22:00 +9°C° 0 mm 7 m/s 751 mmHg 87%
    23:00 +9°C° 0 mm 7 m/s 750 mmHg 88%

    Amanhã, 22 Março, Sexta-feira

    Tempo Temperatura Precipitação Vento Pressão Humidade
    00:00 +9°C° 0.1 mm 8 m/s 749 mmHg 86%
    01:00 +9°C° 0.1 mm 8 m/s 748 mmHg 85%
    02:00 +8°C° 0.1 mm 9 m/s 748 mmHg 83%
    03:00 +8°C° 0.1 mm 9 m/s 747 mmHg 84%
    04:00 +7°C° 0.1 mm 9 m/s 747 mmHg 86%
    05:00 +7°C° 0.1 mm 9 m/s 747 mmHg 87%
    06:00 +7°C° 1.2 mm 8 m/s 747 mmHg 89%
    07:00 +8°C° 1.2 mm 7 m/s 747 mmHg 91%
    08:00 +8°C° 1.2 mm 6 m/s 748 mmHg 93%
    09:00 +8°C° 0.3 mm 6 m/s 748 mmHg 87%
    10:00 +8°C° 0.3 mm 6 m/s 749 mmHg 81%
    11:00 +8°C° 0.3 mm 6 m/s 750 mmHg 74%
    12:00 +8°C° 0 mm 6 m/s 750 mmHg 70%
    13:00 +8°C° 0 mm 7 m/s 751 mmHg 65%
    14:00 +6°C° 0 mm 7 m/s 752 mmHg 61%
    15:00 +7°C° 0 mm 6 m/s 752 mmHg 63%
    16:00 +6°C° 0 mm 5 m/s 753 mmHg 66%
    17:00 +5°C° 0 mm 4 m/s 754 mmHg 69%
    18:00 +4°C° 0 mm 4 m/s 754 mmHg 71%
    19:00 +3°C° 0 mm 3 m/s 755 mmHg 72%
    20:00 +2°C° 0 mm 3 m/s 756 mmHg 74%
    21:00 +1°C° 0 mm 3 m/s 757 mmHg 76%
    22:00 +1°C° 0 mm 3 m/s 757 mmHg 77%
    23:00 +2°C° 0 mm 2 m/s 758 mmHg 78%

    Depois de amanhã, 23 Março, Sábado

    Tempo Temperatura Precipitação Vento Pressão Humidade
    00:00 +2°C° 0 mm 2 m/s 758 mmHg 77%
    01:00 +2°C° 0 mm 2 m/s 758 mmHg 77%
    02:00 +1°C° 0 mm 2 m/s 758 mmHg 77%
    03:00 +2°C° 0 mm 2 m/s 758 mmHg 76%
    04:00 +2°C° 0 mm 2 m/s 758 mmHg 75%
    05:00 +3°C° 0 mm 1 m/s 759 mmHg 75%
    06:00 +4°C° 0 mm 1 m/s 759 mmHg 73%
    07:00 +4°C° 0 mm 2 m/s 760 mmHg 71%
    08:00 +5°C° 0 mm 2 m/s 760 mmHg 69%
    09:00 +6°C° 0 mm 2 m/s 760 mmHg 65%
    10:00 +7°C° 0 mm 2 m/s 760 mmHg 61%
    11:00 +7°C° 0 mm 2 m/s 761 mmHg 57%
    12:00 +7°C° 0.1 mm 2 m/s 761 mmHg 59%
    13:00 +7°C° 0.1 mm 2 m/s 760 mmHg 62%
    14:00 +7°C° 0.1 mm 2 m/s 760 mmHg 64%
    15:00 +7°C° 0.1 mm 2 m/s 760 mmHg 68%
    16:00 +6°C° 0.1 mm 2 m/s 760 mmHg 71%
    17:00 +7°C° 0.1 mm 1 m/s 760 mmHg 75%
    18:00 +5°C° 0 mm 1 m/s 760 mmHg 77%
    19:00 +4°C° 0 mm 1 m/s 761 mmHg 80%
    20:00 +3°C° 0 mm 1 m/s 761 mmHg 82%
    21:00 +2°C° 0 mm 1 m/s 761 mmHg 83%
    22:00 +2°C° 0 mm 1 m/s 761 mmHg 83%
    23:00 +2°C° 0 mm 1 m/s 761 mmHg 84%

    24 Março, Domingo

    Tempo Temperatura Precipitação Vento Pressão Humidade
    00:00 +1°C° 0 mm 2 m/s 761 mmHg 85%
    01:00 -1°C° 0 mm 2 m/s 761 mmHg 87%
    02:00 -1°C° 0 mm 2 m/s 761 mmHg 88%
    03:00 -1°C° 0 mm 2 m/s 761 mmHg 89%
    04:00 -1°C° 0 mm 2 m/s 761 mmHg 90%
    05:00 -1°C° 0 mm 2 m/s 761 mmHg 91%
    06:00 +2°C° 0 mm 2 m/s 761 mmHg 86%
    07:00 +3°C° 0 mm 3 m/s 761 mmHg 81%
    08:00 +5°C° 0 mm 3 m/s 762 mmHg 75%
    09:00 +6°C° 0 mm 4 m/s 762 mmHg 71%
    10:00 +7°C° 0 mm 4 m/s 762 mmHg 66%
    11:00 +8°C° 0 mm 4 m/s 762 mmHg 62%
    12:00 +8°C° 0 mm 4 m/s 762 mmHg 64%
    13:00 +8°C° 0 mm 4 m/s 762 mmHg 65%
    14:00 +8°C° 0 mm 4 m/s 762 mmHg 67%
    15:00 +8°C° 0 mm 3 m/s 762 mmHg 71%
    16:00 +8°C° 0 mm 3 m/s 762 mmHg 75%
    17:00 +7°C° 0 mm 2 m/s 762 mmHg 78%
    18:00 +6°C° 0 mm 2 m/s 762 mmHg 83%
    19:00 +4°C° 0 mm 2 m/s 762 mmHg 87%
    20:00 +3°C° 0 mm 2 m/s 763 mmHg 92%
    21:00 +3°C° 0 mm 2 m/s 763 mmHg 92%
    22:00 +4°C° 0 mm 1 m/s 763 mmHg 92%
    23:00 +4°C° 0 mm 1 m/s 763 mmHg 92%

    25 Março, Segunda-feira

    Tempo Temperatura Precipitação Vento Pressão Humidade
    00:00 +3°C° 0 mm 1 m/s 763 mmHg 93%
    01:00 +3°C° 0 mm 1 m/s 763 mmHg 93%
    02:00 +3°C° 0 mm 1 m/s 763 mmHg 93%
    03:00 +3°C° 0 mm 1 m/s 763 mmHg 93%
    04:00 +2°C° 0 mm 1 m/s 763 mmHg 93%
    05:00 +1°C° 0 mm 0 m/s 763 mmHg 93%
    06:00 +4°C° 0 mm 1 m/s 763 mmHg 89%
    07:00 +5°C° 0 mm 1 m/s 763 mmHg 86%
    08:00 +7°C° 0 mm 1 m/s 763 mmHg 82%
    09:00 +7°C° 0 mm 2 m/s 763 mmHg 76%
    10:00 +8°C° 0 mm 2 m/s 763 mmHg 71%
    11:00 +10°C° 0 mm 2 m/s 763 mmHg 66%
    12:00 +10°C° 0 mm 2 m/s 763 mmHg 64%
    13:00 +12°C° 0 mm 2 m/s 763 mmHg 63%
    14:00 +12°C° 0 mm 2 m/s 762 mmHg 62%
    15:00 +12°C° 0 mm 2 m/s 762 mmHg 66%
    16:00 +10°C° 0 mm 2 m/s 762 mmHg 71%
    17:00 +10°C° 0 mm 1 m/s 762 mmHg 75%
    18:00 +8°C° 0 mm 1 m/s 762 mmHg 79%
    19:00 +7°C° 0 mm 1 m/s 762 mmHg 82%
    20:00 +4°C° 0 mm 0 m/s 762 mmHg 86%
    21:00 +4°C° 0 mm 0 m/s 762 mmHg 86%
    22:00 +4°C° 0 mm 1 m/s 762 mmHg 86%
    23:00 +4°C° 0 mm 1 m/s 762 mmHg 86%

    26 Março, Terça-feira

    Tempo Temperatura Precipitação Vento Pressão Humidade
    00:00 +4°C° 0 mm 1 m/s 762 mmHg 87%
    01:00 +3°C° 0 mm 1 m/s 762 mmHg 87%
    02:00 +3°C° 0 mm 1 m/s 762 mmHg 87%
    03:00 +3°C° 0 mm 1 m/s 761 mmHg 89%
    04:00 +3°C° 0 mm 1 m/s 761 mmHg 91%
    05:00 +3°C° 0 mm 1 m/s 761 mmHg 92%
    06:00 +4°C° 0 mm 1 m/s 761 mmHg 89%
    07:00 +5°C° 0 mm 2 m/s 761 mmHg 86%
    08:00 +6°C° 0 mm 2 m/s 762 mmHg 83%
    09:00 +8°C° 0 mm 2 m/s 762 mmHg 76%
    10:00 +9°C° 0 mm 2 m/s 762 mmHg 68%
    11:00 +12°C° 0 mm 2 m/s 762 mmHg 61%
    12:00 +13°C° 0 mm 2 m/s 761 mmHg 60%
    13:00 +12°C° 0 mm 3 m/s 761 mmHg 59%
    14:00 +13°C° 0 mm 3 m/s 760 mmHg 58%
    15:00 +13°C° 0 mm 2 m/s 760 mmHg 63%
    16:00 +12°C° 0 mm 2 m/s 760 mmHg 67%
    17:00 +11°C° 0 mm 1 m/s 760 mmHg 72%
    18:00 +9°C° 0 mm 1 m/s 760 mmHg 75%
    19:00 +8°C° 0 mm 1 m/s 760 mmHg 79%
    20:00 +5°C° 0 mm 0 m/s 760 mmHg 82%
    21:00 +5°C° 0 mm 0 m/s 760 mmHg 83%
    22:00 +5°C° 0 mm 1 m/s 760 mmHg 84%
    23:00 +5°C° 0 mm 1 m/s 760 mmHg 85%
    Mostrar mais